+ View the NASA Portal
+ Center for Near-Earth Object Studies
IMPORTANT:
The SSD Announcement email list is now available. Major changes are coming in the near future, including possible hostname and/or URL changes. To be notified of such changes, subscribe to this email list.
Please visit
this page
for more details.
Don't show this message again
JPL Small-Body Database Browser
Search:
[
help
]
233644 (2008 OZ6)
Classification:
Main-belt Asteroid
SPK-ID:
2233644
[
Ephemeris
|
Orbit Diagram
|
Orbital Elements
|
Mission Design
|
Physical Parameters
|
Discovery Circumstances
]
[ show orbit diagram ]
Orbital Elements at Epoch 2458600.5 (2019-Apr-27.0) TDB
Reference:
JPL 13
(heliocentric ecliptic J2000)
Element
Value
Uncertainty (1-sigma)
Units
e
.1658831792102173
8.8517e-08
a
2.640329279499797
2.8676e-08
au
q
2.202343064454548
2.2604e-07
au
i
10.85079484470971
6.3899e-06
deg
node
295.5347436765554
3.6261e-05
deg
peri
55.26522448222624
4.1602e-05
deg
M
167.3590723117089
2.358e-05
deg
t
p
2457871.995357661655
(2017-Apr-28.49535766)
9.8006e-05
TDB
period
1567.059781219018
4.29
2.5529e-05
6.989e-08
d
yr
n
.2297295893331877
3.7426e-09
deg/d
Q
3.078315494545046
3.3433e-08
au
Orbit Determination Parameters
# obs. used (total)
225
data-arc span
6251 days (17.11 yr)
first obs. used
2002-02-14
last obs. used
2019-03-28
planetary ephem.
DE431
SB-pert. ephem.
SB431-N16
condition code
0
norm. resid. RMS
.60034
source
ORB
producer
Otto Matic
solution date
2019-Jul-14 10:58:58
Additional Information
Earth MOID
= 1.21441 au
Jupiter MOID
= 2.37871 au
T_jup
= 3.351
[ show covariance matrix ]
[
Ephemeris
|
Orbit Diagram
|
Orbital Elements
|
Mission Design
|
Physical Parameters
|
Discovery Circumstances
]
Physical Parameter Table
Parameter
Symbol
Value
Units
Sigma
Reference
Notes
absolute magnitude
H
16.2
n/a
MPO334380
diameter
diameter
3.420
km
0.374
urn:nasa:pds:neowise_diameters_albedos::2.0[mainbelt] (http://adsabs.harvard.edu/abs/2011ApJ...741...68M)
geometric albedo
albedo
0.055
0.014
urn:nasa:pds:neowise_diameters_albedos::2.0[mainbelt] (http://adsabs.harvard.edu/abs/2011ApJ...741...68M)
233644 (2008 OZ6)
Discovered 2008-Jul-29 by Crni Vrh at Crni Vrh
Reference:
20100228/Numbers.arc
Last Updated:
2010-03-03
[
Ephemeris
|
Orbit Diagram
|
Orbital Elements
|
Mission Design
|
Physical Parameters
|
Discovery Circumstances
]
2019-Dec-10 19:21 UT
(server date/time)
Site Manager:
Ryan S. Park
Webmaster
:
Alan B. Chamberlin